Regional Weather Roundup
Issued by NWS Little Rock, AR

Home | Current Version | Previous Version | Text Only | Print | Product List | Glossary On
Versions: 1 2 3 4 5 6 7 8 9 10 11 12 13 14 15 16 17 18 19 20 21 22 23 24 25 26 27 28 29 30 31 32 33 34
000
ASUS44 KLZK 041405
RWRLZK

WEATHER ROUNDUP FOR ARKANSAS
NATIONAL WEATHER SERVICE LITTLE ROCK AR
800 AM CST SUN DEC 04 2016

NOTE: "FAIR" INDICATES FEW OR NO CLOUDS BELOW 12,000 FEET WITH NO
SIGNIFICANT WEATHER AND/OR OBSTRUCTIONS TO VISIBILITY.

ARZ001-003-010-029-041500-
NORTHWEST ARKANSAS

CITY           SKY/WX    TMP DP  RH WIND       PRES   REMARKS
FAYETTEVILLE   CLOUDY    41  41 100 SW3       30.02R FOG
FORT SMITH     LGT RAIN  43  41  93 CALM      30.04S FOG
HARRISON       CLOUDY    38  38 100 CALM      30.02R FOG
BENTONVILLE    CLOUDY    41  36  81 CALM      30.02R
ROGERS         LGT RAIN  40  40 100 SW3       30.02R
SILOAM SPGS    CLOUDY    43  39  87 SW7       30.01R
HIGHFILL       CLOUDY    42  41  96 S3        30.01R FOG
SPRINGDALE     CLOUDY    41  41 100 CALM      30.03R FOG
$$

ARZ004-005-016-041500-
NORTH CENTRAL ARKANSAS

CITY           SKY/WX    TMP DP  RH WIND       PRES   REMARKS
BATESVILLE     CLOUDY    39  37  93 CALM      30.04R VSB 1
FLIPPIN        CLOUDY    39  36  87 CALM      30.00R
MTN HOME       CLOUDY    38  38 100 S3        30.01R FOG
$$

ARZ040-041-041500-
WEST CENTRAL ARKANSAS

CITY           SKY/WX    TMP DP  RH WIND       PRES   REMARKS
MENA           CLOUDY    45  45 100 CALM      30.01R
$$

ARZ009-017-025-026-028-041500-
NORTHEAST ARKANSAS

CITY           SKY/WX    TMP DP  RH WIND       PRES   REMARKS
CORNING        MIX PCPN  39  39 100 E6        30.02S
JONESBORO      CLOUDY    41  40  96 NE5       30.00S FOG
NEWPORT        CLOUDY    41  40  96 NE6         N/A  FOG
WALNUT RIDGE   CLOUDY    39  37  93 NE6       30.01S VSB 1
BLYTHEVILLE    CLOUDY    43  41  93 E5        30.01F
$$

ARZ022-023-033-042-044-041500-
CENTRAL ARKANSAS

CITY           SKY/WX    TMP DP  RH WIND       PRES   REMARKS
LITTLE ROCK    DRIZZLE   42  42 100 N6        30.01S FOG
N LITTLE ROCK    N/A     41  40  97 CALM      30.03R
JACKSONVILLE   CLOUDY    43  41  93 N6        30.00S FOG
SEARCY         LGT RAIN  42  42 100 N5        30.03R FOG
HOT SPRINGS    CLOUDY    43  43 100 CALM      30.00F FOG
RUSSELLVILLE   CLOUDY    42  41  96 CALM      30.01F FOG
CLINTON        CLOUDY    43  41  93 CALM      30.03R FOG
$$

ARZ036-041500-
EAST ARKANSAS

CITY           SKY/WX    TMP DP  RH WIND       PRES   REMARKS
WEST MEMPHIS   CLOUDY    43  42  97 NE3       29.97R FOG
$$

ARZ050-053-066-070-073-041500-
SOUTHWEST ARKANSAS

CITY           SKY/WX    TMP DP  RH WIND       PRES   REMARKS
ARKADELPHIA    CLOUDY    45  44  97 N7        30.02S FOG
CAMDEN         FOG       46  43  87 N3        30.00S VSB 1
TEXARKANA      CLOUDY    46  45  96 N6        30.01R FOG
EL DORADO      CLOUDY    46  45  96 N5        29.98R FOG
DE QUEEN       CLOUDY    47  46  97 CALM      30.01R
$$

ARZ056-057-069-041500-
SOUTHEAST ARKANSAS

CITY           SKY/WX    TMP DP  RH WIND       PRES   REMARKS
PINE BLUFF     CLOUDY    45  45 100 N5        29.99R FOG
STUTTGART      CLOUDY    45  39  81 N8        29.99S
MONTICELLO     CLOUDY    46  43  89 VRB3      29.97R

$$






USA.gov is the U.S. government's official web portal to all federal, state and local government web resources and services.